Regional Weather Roundup
Issued by NWS

Home | Current Version | Previous Version | Graphics & Text | Print | Product List | Glossary Off
Versions: 1 2 3 4 5 6 7 8 9 10 11 12 13 14 15 16 17 18 19 20 21 22 23 24 25 26 27 28 29 30 31 32 33 34 35 36 37 38 39 40 41 42 43 44 45 46 47 48 49 50

407
ASUS43 KFSD 181610
RWRSD

WEATHER ROUNDUP FOR SOUTH DAKOTA
NATIONAL WEATHER SERVICE SIOUX FALLS SD
1000 AM CST MON DEC 18 2017

NOTE: "FAIR" INDICATES FEW OR NO CLOUDS BELOW 12,000 FEET WITH NO
SIGNIFICANT WEATHER AND/OR OBSTRUCTIONS TO VISIBILITY.


SDZ001>005-009-010-012>017-181700-
NORTHWEST AND NORTH CENTRAL SOUTH DAKOTA

CITY           SKY/WX    TMP DP  RH WIND       PRES   REMARKS
BUFFALO          N/A     39  23  52 W15       29.60S
FAITH            N/A     34  23  64 S12       29.68F WCI  25
MOBRIDGE       CLOUDY    34  27  75 SE3       29.66S
$$

SDZ012>016-024>037-041>051-057-063-072>074-181700-
SOUTHWEST AND SOUTH CENTRAL SOUTH DAKOTA

CITY           SKY/WX    TMP DP  RH WIND       PRES   REMARKS
RAPID CTY ARPT CLOUDY    31  23  72 CALM      29.73S
PIERRE         SUNNY     33  24  69 SW16      29.73F WCI  23
CUSTER         CLOUDY    30  18  60 W12       29.78R WCI  20
ELLSWORTH AFB  CLOUDY    33  21  61 W9        29.72S WCI  26
PHILIP         SUNNY     38  25  59 SW15      29.75F
PINE RIDGE     CLOUDY    32  23  69 W6        29.82F WCI  26
SPEARFISH      FAIR      45  23  42 W10G20    29.71S
WINNER         FAIR      38  24  57 SW12      29.79F
$$

SDZ004>011-016>023-039-040-181700-
NORTHEAST SOUTH DAKOTA

CITY           SKY/WX    TMP DP  RH WIND       PRES   REMARKS
ABERDEEN       CLOUDY    30  26  85 SW13      29.70F WCI  20
WATERTOWN      CLOUDY    30  26  85 SW13      29.70F WCI  20
BROOKINGS      CLOUDY    31  27  85 SW9       29.76S WCI  23
SISSETON         N/A     35  27  72 SE8       29.66S WCI  29
$$

SDZ017-020-022-023-036>040-048>070-181700-
SOUTHEAST SOUTH DAKOTA

CITY           SKY/WX    TMP DP  RH WIND       PRES   REMARKS
SIOUX FALLS    CLOUDY    34  28  79 SW8       29.81S WCI  27
HURON          SUNNY     33  26  75 SW9       29.77S WCI  25
CHAMBERLAIN    SUNNY     37  28  68 SW9       29.79F
MITCHELL       SUNNY     37  27  67 SW10      29.80F
YANKTON        SUNNY     36  28  73 SW9       29.85S
$$

ABBREVIATIONS USED IN REMARKS
   TC - TEMPERATURE IN CELSIUS
  WCI - WIND CHILL INDEX
   HX - HEAT INDEX
  VSB - VISIBILITY





USA.gov is the U.S. government's official web portal to all federal, state and local government web resources and services.